This demonstration page uses our WeatherBlox Daily Observations layout. Learn more.

Left ArrowRight Arrow

39.01783, -85.05884

Hourly Observations for November 26, 2021

Temp ( °F °C ) Dew Point ( °F °C ) Humidity (%) Winds ( mph kmh ) Pressure ( in mb ) Visibility ( mi km ) Precip ( " mm )
12:52 am 00:52 Cloudy 34 1.1 24 -4.4 67 67 WNW 18 30 30.12 1020 10 16 N/A
1:52 am 01:52 Cloudy 33 0.6 23 -5 66 66 WNW 18 30 30.13 1020 10 16 N/A
2:52 am 02:52 Cloudy 32 undefined 23 -5 69 69 WNW 18 30 30.14 1021 10 16 N/A
3:52 am 03:52 Cloudy 31 -0.6 22 -5.6 69 69 WNW 15 24 30.15 1021 10 16 N/A
4:52 am 04:52 Cloudy 30 -1.1 21 -6.1 69 69 WNW 12 19 30.16 1021 10 16 N/A
5:52 am 05:52 Cloudy 30 -1.1 20 -6.7 66 66 WNW 12 19 30.17 1022 10 16 N/A
6:52 am 06:52 Cloudy 29 -1.7 19 -7.2 66 66 W 16 26 30.18 1022 10 16 N/A
7:35 am 07:35 Cloudy 28 -2.2 19 -7.2 69 69 W 9 15 30.23 1024 10 16 N/A
7:52 am 07:52 Mostly Cloudy 28 -2.2 19 -7.2 69 69 W 13 20 30.20 1023 10 16 N/A
8:12 am 08:12 Cloudy 28 -2.2 19 -7.2 69 69 W 13 20 30.24 1024 10 16 N/A
8:52 am 08:52 Cloudy 28 -2.2 19 -7.2 69 69 W 13 20 30.22 1023 10 16 N/A
9:52 am 09:52 Cloudy 29 -1.7 19 -7.2 66 66 W 12 19 30.23 1024 10 16 N/A
10:52 am 10:52 Mostly Cloudy 29 -1.7 20 -6.7 69 69 W 12 19 30.24 1024 10 16 N/A
11:52 am 11:52 Mostly Cloudy 30 -1.1 18 -7.8 61 61 NW 12 19 30.24 1024 10 16 N/A
12:52 pm 12:52 Mostly Cloudy 33 0.6 19 -7.2 56 56 W 10 17 30.21 1023 10 16 N/A
1:52 pm 13:52 Partly Cloudy 34 1.1 17 -8.3 50 50 WNW 6 9 30.17 1022 10 16 N/A
2:52 pm 14:52 Mostly Sunny 34 1.1 18 -7.8 52 52 WNW 9 15 30.17 1022 10 16 N/A
3:52 pm 15:52 Partly Cloudy 34 1.1 18 -7.8 52 52 WNW 3 6 30.16 1021 10 16 N/A
4:52 pm 16:52 Mostly Cloudy 33 0.6 17 -8.3 52 52 W 7 11 30.16 1021 10 16 N/A
5:52 pm 17:52 Cloudy 32 undefined 18 -7.8 56 56 W 5 7 30.16 1021 10 16 N/A
6:52 pm 18:52 Cloudy 32 undefined 19 -7.2 59 59 W 3 6 30.14 1021 10 16 N/A
7:52 pm 19:52 Cloudy 31 -0.6 19 -7.2 61 61 W 5 7 30.15 1021 10 16 N/A
8:52 pm 20:52 Cloudy 31 -0.6 19 -7.2 61 61 WSW 3 6 30.14 1021 10 16 N/A
9:52 pm 21:52 Cloudy 30 -1.1 21 -6.1 69 69 N N/A 30.13 1020 10 16 N/A
10:52 pm 22:52 Cloudy 31 -0.6 20 -6.7 64 64 WSW 3 6 30.12 1020 10 16 N/A
11:52 pm 23:52 Cloudy 31 -0.6 20 -6.7 64 64 SSW 3 6 30.12 1020 10 16 N/A

Powered by AerisWeather